Terminal Aerodrome Forecast
Issued by NWS

Home | Current Version | Previous Version | Text Only | Print | Product List | Glossary On
Versions: 1 2 3 4 5 6 7 8 9 10 11 12 13 14 15 16 17 18 19 20 21
000
FTUS41 KBOX 190534
TAFHYA
TAF
KHYA 190534Z 1906/2006 00000KT P6SM BKN200
      TEMPO 1907/1911 4SM BR
     FM191200 28006KT P6SM SCT250
     FM191500 29010KT P6SM FEW050 FEW250
     FM191800 33011KT P6SM FEW050 FEW250
     FM192200 35007KT P6SM FEW050 FEW250=

USA.gov is the U.S. government's official web portal to all federal, state and local government web resources and services.